Simultaneous Nadir Overpasses (SNOs) Predictions

Prediction of SNOs between AQUA and METOP-B Satellite Orbit:

Table of predicted SNOs for the next 14.0 days since TLE Epoch: 1/25/2013
Index Date (AQUA) Time (AQUA) Lat,Lon (AQUA) SZA (AQUA ) Date (METOP-B) Time (METOP-B) Lat,Lon (METOP-B) SZA (METOP-B ) Distance(km) Time Diff (sec)
1 01/27/2013 21:35:27 -73.69, 30.60 88.00 01/27/2013 21:34:33 -73.68, 30.53 87.99 2.14 54
2 01/27/2013 22:24:56 73.77,-161.94 92.09 01/27/2013 22:25:12 73.75,-161.97 92.08 1.60 16
3 01/27/2013 23:14:34 -74.41, 4.23 87.23 01/27/2013 23:15:40 -74.40, 6.97 87.35 82.01 66
4 01/30/2013 17:09:37 -73.68, 97.07 88.75 01/30/2013 17:08:57 -73.70, 96.99 88.72 3.39 40
5 01/30/2013 17:59:06 73.77, -95.48 91.34 01/30/2013 17:59:36 73.78, -95.51 91.34 1.03 30
6 02/02/2013 12:43:47 -73.72, 163.46 89.51 02/02/2013 12:43:21 -73.72, 163.44 89.50 0.64 26
7 02/02/2013 13:33:16 73.81, -29.11 90.58 02/02/2013 13:34:00 73.80, -29.05 90.56 2.35 44
8 02/05/2013 07:28:21 73.31, 63.15 89.23 02/05/2013 07:27:12 73.28, 61.51 89.29 52.49 69
9 02/05/2013 08:17:55 -73.74,-130.12 90.32 02/05/2013 08:17:44 -73.74,-130.11 90.32 0.51 11
10 02/05/2013 09:07:23 73.79, 37.42 89.72 02/05/2013 09:08:23 73.81, 37.40 89.74 3.17 60
11 02/08/2013 03:02:36 73.69, 128.82 88.76 02/08/2013 03:01:28 73.70, 128.87 88.78 1.93 68
12 02/08/2013 03:52:03 -73.75, -63.67 91.19 02/08/2013 03:52:08 -73.76, -63.66 91.18 0.92 5




NCC Satellite Simultaneous Nadir Overpasses (SNOs) Prediction Service
